| time (UTC) | temp C | wind direction | speed KPH | gust KPH | rain 1hr cm | rain 24hr cm | rain mn cm | humidity % | barometer mb |
| 20260508082837 | 12 | 127 | 1.6 | 4.8 | 0.00 | 0.00 | 0.00 | 64 | 1019.6 |
| 20260508081937 | 12 | 318 | 0.0 | 3.2 | 0.00 | 0.00 | 0.00 | 67 | 1019.4 |
| 20260508081037 | 11 | 1 | 0.0 | 3.2 | 0.00 | 0.00 | 0.00 | 70 | 1019.4 |
| 20260508080137 | 11 | 354 | 0.0 | 3.2 | 0.00 | 0.00 | 0.00 | 70 | 1019.4 |
| 20260508075237 | 11 | 312 | 0.0 | 3.2 | 0.00 | 0.00 | 0.00 | 70 | 1019.4 |
| 20260508074337 | 11 | 284 | 0.0 | 6.4 | 0.00 | 0.00 | 0.00 | 69 | 1019.4 |
| 20260508073437 | 11 | 217 | 1.6 | 3.2 | 0.00 | 0.00 | 0.00 | 69 | 1019.4 |
| 20260508072537 | 11 | 95 | 1.6 | 4.8 | 0.00 | 0.00 | 0.00 | 70 | 1019.2 |
| 20260508071637 | 12 | 118 | 1.6 | 4.8 | 0.00 | 0.00 | 0.00 | 72 | 1019.1 |
| 20260508064937 | 11 | 314 | 0.0 | 3.2 | 0.00 | 0.00 | 0.00 | 81 | 1018.9 |
| 20260508064037 | 10 | 314 | 0.0 | 6.4 | 0.00 | 0.00 | 0.00 | 81 | 1018.8 |
| 20260508063137 | 10 | 314 | 1.6 | 3.2 | 0.00 | 0.00 | 0.00 | 86 | 1018.9 |
| 20260508062237 | 10 | 314 | 0.0 | 3.2 | 0.00 | 0.00 | 0.00 | 87 | 1018.7 |
| 20260508061337 | 10 | 295 | 0.0 | 3.2 | 0.00 | 0.00 | 0.00 | 93 | 1018.6 |
| 20260508060437 | 10 | 225 | 0.0 | 3.2 | 0.00 | 0.00 | 0.00 | 99 | 1018.6 |
| 20260508055537 | 9 | 225 | 0.0 | 3.2 | 0.00 | 0.00 | 0.00 | 99 | 1018.6 |
| 20260508054637 | 9 | 183 | 1.6 | 4.8 | 0.00 | 0.00 | 0.00 | 99 | 1018.6 |
| 20260508053737 | 9 | 105 | 1.6 | 6.4 | 0.00 | 0.00 | 0.00 | 99 | 1018.5 |
| 20260508052837 | 8 | 324 | 3.2 | 6.4 | 0.00 | 0.00 | 0.00 | 99 | 1018.4 |
| 20260508051937 | 8 | 46 | 3.2 | 6.4 | 0.00 | 0.00 | 0.00 | 99 | 1018.5 |
| 20260508051037 | 8 | 0 | 0.0 | 0.0 | 0.00 | 0.00 | 0.00 | 99 | 1018.5 |
| 20260508045236 | 8 | 0 | 0.0 | 0.0 | 0.00 | 0.00 | 0.00 | 99 | 1018.2 |
| 20260508044337 | 8 | 0 | 0.0 | 0.0 | 0.00 | 0.00 | 0.00 | 99 | 1018.2 |
| 20260508043436 | 8 | 0 | 0.0 | 0.0 | 0.00 | 0.00 | 0.00 | 99 | 1018.1 |
| 20260508042536 | 7 | 1 | 0.0 | 1.6 | 0.00 | 0.00 | 0.00 | 99 | 1018.1 |
| 20260508041636 | 7 | 348 | 0.0 | 3.2 | 0.00 | 0.00 | 0.00 | 99 | 1018.1 |
| 20260508040736 | 7 | 0 | 0.0 | 0.0 | 0.00 | 0.00 | 0.00 | 99 | 1018.1 |
| 20260508035836 | 7 | 0 | 0.0 | 0.0 | 0.00 | 0.00 | 0.00 | 99 | 1018.1 |
| 20260508034936 | 7 | 0 | 0.0 | 0.0 | 0.00 | 0.00 | 0.00 | 99 | 1018.0 |
| 20260508034037 | 7 | 317 | 0.0 | 3.2 | 0.00 | 0.00 | 0.00 | 99 | 1017.8 |
| 20260508033136 | 7 | 314 | 0.0 | 3.2 | 0.00 | 0.00 | 0.00 | 99 | 1017.8 |
| 20260508032237 | 7 | 332 | 0.0 | 3.2 | 0.00 | 0.00 | 0.00 | 98 | 1017.8 |
| 20260508031336 | 7 | 0 | 0.0 | 0.0 | 0.00 | 0.00 | 0.00 | 97 | 1017.8 |
| 20260508030437 | 6 | 0 | 0.0 | 0.0 | 0.00 | 0.03 | 0.00 | 96 | 1017.7 |
| 20260508023736 | 6 | 1 | 0.0 | 1.6 | 0.00 | 0.03 | 0.00 | 95 | 1017.7 |
| 20260508022837 | 6 | 0 | 0.0 | 0.0 | 0.00 | 0.03 | 0.00 | 95 | 1017.6 |
| 20260508021936 | 6 | 0 | 0.0 | 0.0 | 0.00 | 0.03 | 0.00 | 94 | 1017.8 |
| 20260508021037 | 6 | 0 | 0.0 | 0.0 | 0.00 | 0.03 | 0.00 | 93 | 1017.8 |
| 20260508020137 | 6 | 0 | 0.0 | 0.0 | 0.00 | 0.03 | 0.00 | 93 | 1017.8 |
| 20260508015236 | 6 | 0 | 0.0 | 0.0 | 0.00 | 0.03 | 0.00 | 92 | 1017.7 |
| 20260508013436 | 6 | 0 | 0.0 | 0.0 | 0.00 | 0.03 | 0.00 | 91 | 1017.7 |
| 20260508012537 | 6 | 0 | 0.0 | 0.0 | 0.00 | 0.03 | 0.00 | 91 | 1017.6 |
| 20260508011637 | 6 | 0 | 0.0 | 0.0 | 0.00 | 0.03 | 0.00 | 90 | 1017.6 |
| 20260508010736 | 7 | 0 | 0.0 | 0.0 | 0.00 | 0.03 | 0.00 | 90 | 1017.5 |
| 20260508004937 | 7 | 0 | 0.0 | 0.0 | 0.00 | 0.03 | 0.00 | 89 | 1017.6 |
| 20260508004036 | 7 | 314 | 0.0 | 1.6 | 0.00 | 0.03 | 0.00 | 89 | 1017.6 |
| 20260508002237 | 7 | 309 | 1.6 | 4.8 | 0.00 | 0.03 | 0.00 | 89 | 1017.5 |
| 20260508001336 | 7 | 292 | 0.0 | 1.6 | 0.00 | 0.03 | 0.00 | 87 | 1017.6 |
| 20260508000436 | 7 | 0 | 0.0 | 0.0 | 0.00 | 0.03 | 0.00 | 86 | 1017.5 |
| 20260507235537 | 7 | 0 | 0.0 | 0.0 | 0.00 | 0.03 | 0.00 | 85 | 1017.7 |
| 20260507234636 | 7 | 0 | 0.0 | 0.0 | 0.00 | 0.03 | 0.00 | 85 | 1017.7 |
| 20260507233737 | 7 | 0 | 0.0 | 0.0 | 0.00 | 0.03 | 0.00 | 84 | 1017.7 |
| 20260507232836 | 7 | 0 | 0.0 | 0.0 | 0.00 | 0.03 | 0.00 | 83 | 1017.7 |
| 20260507231936 | 7 | 0 | 0.0 | 0.0 | 0.00 | 0.03 | 0.00 | 83 | 1017.7 |
| 20260507231036 | 7 | 0 | 0.0 | 0.0 | 0.00 | 0.03 | 0.00 | 82 | 1017.9 |
| 20260507230136 | 7 | 0 | 0.0 | 0.0 | 0.00 | 0.03 | 0.00 | 81 | 1017.9 |
| 20260507224336 | 7 | 0 | 0.0 | 0.0 | 0.00 | 0.03 | 0.00 | 80 | 1018.1 |
| 20260507223436 | 7 | 291 | 0.0 | 3.2 | 0.00 | 0.03 | 0.00 | 79 | 1017.9 |
| 20260507222536 | 7 | 291 | 0.0 | 3.2 | 0.00 | 0.03 | 0.00 | 78 | 1017.8 |
| 20260507221636 | 7 | 0 | 0.0 | 0.0 | 0.00 | 0.03 | 0.00 | 78 | 1018.0 |
| 20260507220736 | 7 | 281 | 0.0 | 1.6 | 0.00 | 0.03 | 0.00 | 77 | 1017.8 |
| 20260507215836 | 8 | 289 | 0.0 | 4.8 | 0.00 | 0.03 | 0.03 | 77 | 1017.7 |
| 20260507214936 | 8 | 301 | 1.6 | 4.8 | 0.00 | 0.03 | 0.03 | 78 | 1017.6 |
| 20260507214036 | 8 | 304 | 3.2 | 6.4 | 0.00 | 0.03 | 0.03 | 77 | 1017.5 |
| 20260507213136 | 8 | 292 | 0.0 | 6.4 | 0.00 | 0.03 | 0.03 | 77 | 1017.4 |
| 20260507212236 | 8 | 303 | 0.0 | 12.9 | 0.00 | 0.03 | 0.03 | 77 | 1017.3 |
| 20260507211337 | 8 | 318 | 0.0 | 11.3 | 0.00 | 0.03 | 0.03 | 77 | 1017.3 |
| 20260507210436 | 8 | 333 | 3.2 | 6.4 | 0.00 | 0.03 | 0.03 | 77 | 1017.2 |
| 20260507205536 | 8 | 317 | 1.6 | 8.0 | 0.00 | 0.03 | 0.03 | 76 | 1017.2 |
| 20260507204636 | 8 | 339 | 0.0 | 4.8 | 0.00 | 0.03 | 0.03 | 74 | 1017.1 |
| 20260507203737 | 8 | 325 | 0.0 | 6.4 | 0.00 | 0.03 | 0.03 | 73 | 1017.1 |
| 20260507202836 | 8 | 299 | 0.0 | 6.4 | 0.00 | 0.03 | 0.03 | 73 | 1017.0 |
| 20260507200136 | 8 | 312 | 1.6 | 6.4 | 0.00 | 0.03 | 0.03 | 69 | 1016.9 |
| 20260507195236 | 8 | 333 | 0.0 | 6.4 | 0.00 | 0.03 | 0.03 | 68 | 1016.8 |
| 20260507194336 | 8 | 311 | 0.0 | 6.4 | 0.00 | 0.05 | 0.03 | 66 | 1016.8 |
| 20260507192536 | 9 | 292 | 0.0 | 6.4 | 0.00 | 0.20 | 0.03 | 64 | 1016.7 |
| 20260507191636 | 9 | 292 | 1.6 | 8.0 | 0.00 | 0.23 | 0.03 | 64 | 1016.7 |
| 20260507190736 | 9 | 292 | 3.2 | 8.0 | 0.00 | 0.30 | 0.03 | 62 | 1016.5 |
| 20260507185836 | 10 | 292 | 1.6 | 9.7 | 0.00 | 0.38 | 0.03 | 61 | 1016.5 |
| 20260507184936 | 10 | 292 | 0.0 | 12.9 | 0.00 | 0.43 | 0.03 | 60 | 1016.2 |
| 20260507184036 | 10 | 292 | 1.6 | 4.8 | 0.00 | 0.43 | 0.03 | 57 | 1016.0 |
| 20260507183136 | 10 | 302 | 0.0 | 20.9 | 0.00 | 0.43 | 0.03 | 55 | 1016.2 |
| 20260507182236 | 10 | 303 | 0.0 | 9.7 | 0.00 | 0.43 | 0.03 | 52 | 1016.0 |
| 20260507181336 | 10 | 323 | 3.2 | 11.3 | 0.00 | 0.43 | 0.03 | 50 | 1015.9 |
| 20260507180436 | 11 | 306 | 0.0 | 6.4 | 0.00 | 0.43 | 0.03 | 47 | 1016.0 |
| 20260507175536 | 11 | 305 | 3.2 | 9.7 | 0.00 | 0.43 | 0.03 | 47 | 1015.8 |
| 20260507174636 | 11 | 319 | 3.2 | 8.0 | 0.00 | 0.43 | 0.03 | 46 | 1015.8 |
| 20260507173736 | 12 | 323 | 1.6 | 4.8 | 0.00 | 0.43 | 0.03 | 45 | 1015.7 |
| 20260507171036 | 11 | 310 | 1.6 | 8.0 | 0.00 | 0.43 | 0.03 | 45 | 1015.5 |
| 20260507170136 | 12 | 314 | 3.2 | 11.3 | 0.00 | 0.43 | 0.03 | 42 | 1015.6 |
| 20260507165236 | 12 | 334 | 3.2 | 12.9 | 0.00 | 0.43 | 0.03 | 41 | 1015.4 |
| 20260507164336 | 12 | 314 | 3.2 | 17.7 | 0.00 | 0.43 | 0.03 | 42 | 1015.4 |
| 20260507163436 | 12 | 317 | 3.2 | 9.7 | 0.00 | 0.43 | 0.03 | 39 | 1015.2 |
| 20260507162536 | 13 | 313 | 3.2 | 16.1 | 0.00 | 0.43 | 0.03 | 36 | 1015.2 |
| 20260507161637 | 15 | 314 | 1.6 | 12.9 | 0.00 | 0.43 | 0.03 | 29 | 1015.1 |
| 20260507160736 | 15 | 321 | 1.6 | 6.4 | 0.00 | 0.43 | 0.03 | 27 | 1015.1 |
| 20260507155836 | 15 | 304 | 1.6 | 8.0 | 0.00 | 0.43 | 0.03 | 27 | 1014.8 |
| 20260507154936 | 15 | 312 | 0.0 | 6.4 | 0.00 | 0.43 | 0.03 | 30 | 1014.9 |
| 20260507153136 | 14 | 283 | 3.2 | 14.5 | 0.00 | 0.43 | 0.03 | 33 | 1014.9 |
| 20260507151336 | 15 | 307 | 3.2 | 12.9 | 0.00 | 0.43 | 0.03 | 33 | 1014.9 |
| 20260507145536 | 14 | 312 | 0.0 | 16.1 | 0.00 | 0.43 | 0.03 | 35 | 1014.6 |
| 20260507144636 | 15 | 315 | 3.2 | 12.9 | 0.00 | 0.43 | 0.03 | 32 | 1014.7 |
| 20260507143737 | 15 | 311 | 3.2 | 9.7 | 0.00 | 0.43 | 0.03 | 35 | 1014.6 |
| 20260507141036 | 16 | 316 | 3.2 | 11.3 | 0.00 | 0.43 | 0.03 | 28 | 1014.6 |
| 20260507140136 | 16 | 324 | 1.6 | 8.0 | 0.00 | 0.43 | 0.03 | 27 | 1014.5 |
| 20260507135237 | 16 | 354 | 3.2 | 8.0 | 0.00 | 0.46 | 0.03 | 25 | 1014.4 |
| 20260507134336 | 16 | 292 | 0.0 | 8.0 | 0.00 | 0.46 | 0.03 | 26 | 1014.5 |
| 20260507132536 | 16 | 313 | 3.2 | 12.9 | 0.00 | 0.48 | 0.03 | 26 | 1014.6 |
| 20260507130736 | 17 | 315 | 0.0 | 12.9 | 0.00 | 0.48 | 0.03 | 22 | 1014.3 |
| 20260507125836 | 17 | 271 | 3.2 | 12.9 | 0.00 | 0.48 | 0.03 | 26 | 1014.3 |
| 20260507124036 | 16 | 291 | 4.8 | 12.9 | 0.00 | 0.48 | 0.03 | 26 | 1014.3 |
| 20260507123136 | 16 | 308 | 1.6 | 11.3 | 0.00 | 0.48 | 0.03 | 29 | 1014.3 |
| 20260507121336 | 16 | 314 | 3.2 | 9.7 | 0.00 | 0.48 | 0.03 | 26 | 1014.2 |
| 20260507115536 | 16 | 307 | 3.2 | 6.4 | 0.00 | 0.48 | 0.03 | 29 | 1014.1 |
| 20260507114636 | 15 | 301 | 1.6 | 11.3 | 0.00 | 0.48 | 0.03 | 31 | 1014.2 |
| 20260507113736 | 15 | 307 | 1.6 | 11.3 | 0.00 | 0.48 | 0.03 | 29 | 1014.3 |
| 20260507112836 | 16 | 332 | 3.2 | 8.0 | 0.00 | 0.48 | 0.03 | 30 | 1014.2 |
| 20260507111936 | 15 | 209 | 3.2 | 8.0 | 0.00 | 0.48 | 0.03 | 28 | 1014.2 |
| 20260507111036 | 15 | 316 | 1.6 | 6.4 | 0.00 | 0.48 | 0.03 | 30 | 1014.0 |
| 20260507110136 | 16 | 336 | 3.2 | 6.4 | 0.00 | 0.48 | 0.03 | 28 | 1014.1 |
| 20260507104336 | 15 | 309 | 1.6 | 12.9 | 0.00 | 0.48 | 0.03 | 31 | 1014.0 |
| 20260507103436 | 15 | 313 | 3.2 | 12.9 | 0.00 | 0.48 | 0.03 | 28 | 1014.0 |
| 20260507102536 | 16 | 302 | 1.6 | 11.3 | 0.00 | 0.48 | 0.03 | 25 | 1014.0 |
| 20260507101636 | 16 | 299 | 3.2 | 8.0 | 0.00 | 0.48 | 0.03 | 27 | 1013.9 |
| 20260507100736 | 17 | 314 | 3.2 | 11.3 | 0.00 | 0.48 | 0.03 | 25 | 1013.9 |
| 20260507095836 | 17 | 271 | 3.2 | 12.9 | 0.00 | 0.48 | 0.03 | 25 | 1013.8 |
| 20260507094936 | 17 | 288 | 4.8 | 12.9 | 0.00 | 0.48 | 0.03 | 24 | 1013.7 |
| 20260507094036 | 16 | 330 | 3.2 | 9.7 | 0.00 | 0.48 | 0.03 | 27 | 1013.6 |
| 20260507092236 | 16 | 329 | 1.6 | 12.9 | 0.00 | 0.48 | 0.03 | 29 | 1013.5 |
| 20260507091336 | 15 | 302 | 1.6 | 12.9 | 0.00 | 0.48 | 0.03 | 32 | 1013.4 |
| 20260507090436 | 15 | 308 | 3.2 | 6.4 | 0.00 | 0.48 | 0.03 | 30 | 1013.6 |
| 20260507084636 | 16 | 319 | 3.2 | 22.5 | 0.00 | 0.48 | 0.03 | 30 | 1013.3 |
| 20260507083736 | 16 | 315 | 4.8 | 22.5 | 0.00 | 0.48 | 0.03 | 26 | 1013.4 |